�������l�o���
Date,Time,MP-1(��Sv/h),MP-2(��Sv/h),MP-3(��Sv/h),MP-4(��Sv/h),MP-5(��Sv/h),MP-6(��Sv/h),MP-7(��Sv/h),MP-8(��Sv/h),����,����(m/s),���J
2020/04/08,00:00,0.692,0.996,0.669,1.204,0.862,0.398,0.695,0.657,�쐼,3.2,��
2020/04/08,00:10,0.692,0.995,0.667,1.204,0.866,0.398,0.693,0.658,�쐼,3.2,��
2020/04/08,00:20,0.693,0.994,0.668,1.205,0.865,0.397,0.692,0.657,�쐼,2.3,��
2020/04/08,00:30,0.692,0.995,0.668,1.206,0.863,0.398,0.693,0.657,�쐼,1.5,��
2020/04/08,00:40,0.691,0.995,0.669,1.208,0.860,0.397,0.692,0.657,��,2.0,��
2020/04/08,00:50,0.692,0.997,0.669,1.204,0.864,0.397,0.693,0.657,��,1.1,��
2020/04/08,01:00,0.691,0.994,0.668,1.205,0.864,0.396,0.693,0.657,��,1.4,��
2020/04/08,01:10,0.692,0.993,0.668,1.207,0.864,0.397,0.692,0.657,-,CALM,��
2020/04/08,01:20,0.690,0.996,0.667,1.206,0.865,0.397,0.693,0.656,��,0.9,��
2020/04/08,01:30,0.691,0.994,0.669,1.203,0.863,0.397,0.692,0.657,�쐼,1.5,��
2020/04/08,01:40,0.691,0.994,0.668,1.207,0.865,0.397,0.693,0.655,��쐼,2.8,��
2020/04/08,01:50,0.692,0.994,0.668,1.204,0.865,0.397,0.693,0.656,�쐼,2.0,��
2020/04/08,02:00,0.691,0.996,0.668,1.204,0.862,0.398,0.692,0.656,��쐼,2.3,��
2020/04/08,02:10,0.692,0.996,0.667,1.206,0.865,0.397,0.693,0.658,��쐼,2.8,��
2020/04/08,02:20,0.691,0.994,0.669,1.205,0.864,0.398,0.692,0.658,��쐼,2.9,��
2020/04/08,02:30,0.692,0.994,0.667,1.205,0.864,0.398,0.693,0.656,��쐼,2.2,��
2020/04/08,02:40,0.691,0.993,0.668,1.206,0.865,0.396,0.692,0.657,�쐼,1.4,��
2020/04/08,02:50,0.691,0.995,0.668,1.205,0.864,0.397,0.692,0.656,�쐼,2.6,��
2020/04/08,03:00,0.692,0.994,0.667,1.206,0.864,0.398,0.694,0.657,���쐼,3.1,��
2020/04/08,03:10,0.690,0.994,0.667,1.207,0.865,0.398,0.692,0.657,��,1.7,��
2020/04/08,03:20,0.691,0.995,0.668,1.207,0.864,0.398,0.692,0.656,��,1.1,��
2020/04/08,03:30,0.690,0.995,0.668,1.205,0.862,0.398,0.691,0.656,���쐼,0.9,��
2020/04/08,03:40,0.691,0.995,0.669,1.207,0.863,0.399,0.692,0.657,��,2.3,��
2020/04/08,03:50,0.691,0.993,0.668,1.205,0.863,0.398,0.691,0.656,��,4.3,��
2020/04/08,04:00,0.691,0.996,0.667,1.205,0.865,0.398,0.691,0.656,���k��,2.3,��
2020/04/08,04:10,0.692,0.994,0.668,1.204,0.863,0.398,0.693,0.656,���k��,0.8,��
2020/04/08,04:20,0.692,0.995,0.669,1.205,0.862,0.398,0.691,0.658,���쐼,1.5,��
2020/04/08,04:30,0.690,0.995,0.667,1.204,0.865,0.395,0.692,0.658,�쐼,0.8,��
2020/04/08,04:40,0.690,0.996,0.667,1.205,0.860,0.398,0.691,0.657,-,CALM,��
2020/04/08,04:50,0.690,0.992,0.669,1.205,0.864,0.398,0.692,0.657,��,0.6,��
2020/04/08,05:00,0.691,0.993,0.668,1.207,0.863,0.398,0.691,0.656,��,2.8,��
2020/04/08,05:10,0.691,0.995,0.667,1.205,0.863,0.398,0.693,0.656,���쓌,2.5,��
2020/04/08,05:20,0.692,0.994,0.667,1.204,0.865,0.397,0.692,0.658,��,2.3,��
2020/04/08,05:30,0.691,0.994,0.669,1.203,0.865,0.397,0.692,0.658,��,2.6,��
2020/04/08,05:40,0.691,0.993,0.667,1.203,0.861,0.398,0.693,0.656,��,2.3,��
2020/04/08,05:50,0.691,0.993,0.669,1.205,0.862,0.398,0.690,0.658,��,2.2,��
2020/04/08,06:00,0.691,0.994,0.668,1.205,0.863,0.396,0.692,0.657,��,1.2,��
2020/04/08,06:10,0.691,0.992,0.667,1.207,0.861,0.397,0.692,0.656,���쓌,1.7,��
2020/04/08,06:20,0.691,0.994,0.666,1.206,0.864,0.398,0.692,0.657,�쓌,2.2,��
2020/04/08,06:30,0.690,0.994,0.668,1.204,0.863,0.396,0.691,0.658,�쓌,2.2,��
2020/04/08,06:40,0.692,0.995,0.668,1.204,0.863,0.397,0.692,0.657,���쓌,2.3,��
2020/04/08,06:50,0.693,0.996,0.668,1.205,0.861,0.398,0.692,0.659,���쓌,1.7,��
2020/04/08,07:00,0.692,0.993,0.667,1.207,0.864,0.399,0.693,0.658,���쓌,1.4,��
2020/04/08,07:10,0.691,0.993,0.668,1.206,0.864,0.399,0.694,0.658,���쓌,1.5,��
2020/04/08,07:20,0.692,0.993,0.668,1.205,0.865,0.397,0.693,0.658,��,1.7,��
2020/04/08,07:30,0.693,0.996,0.669,1.206,0.864,0.399,0.695,0.658,��,1.7,��
2020/04/08,07:40,0.693,0.993,0.667,1.208,0.864,0.399,0.695,0.658,���쓌,1.5,��
2020/04/08,07:50,0.693,0.996,0.669,1.205,0.865,0.397,0.693,0.658,��,0.9,��
2020/04/08,08:00,0.694,0.993,0.669,1.205,0.863,0.396,0.696,0.658,��,2.0,��
2020/04/08,08:10,0.695,0.992,0.669,1.205,0.864,0.397,0.695,0.657,���쓌,2.0,��
2020/04/08,08:20,0.695,0.992,0.670,1.206,0.863,0.395,0.694,0.660,��,2.2,��
2020/04/08,08:30,0.694,0.990,0.667,1.204,0.864,0.395,0.693,0.658,��,2.3,��
2020/04/08,08:40,0.694,0.989,0.668,1.208,0.865,0.396,0.692,0.657,��,2.8,��
2020/04/08,08:50,0.695,0.990,0.671,1.205,0.864,0.396,0.692,0.659,���쓌,2.2,��
2020/04/08,09:00,0.694,0.990,0.670,1.207,0.865,0.395,0.692,0.654,���쓌,3.2,��
2020/04/08,09:10,0.696,0.989,0.669,1.205,0.867,0.396,0.692,0.657,���쓌,3.3,��
2020/04/08,09:20,0.692,0.990,0.670,1.208,0.868,0.397,0.692,0.656,���쓌,3.5,��
2020/04/08,09:30,0.693,0.987,0.672,1.207,0.866,0.397,0.691,0.655,���쓌,3.2,��
2020/04/08,09:40,0.695,0.988,0.668,1.209,0.867,0.398,0.691,0.656,��,3.2,��
2020/04/08,09:50,0.692,0.987,0.669,1.208,0.867,0.397,0.692,0.655,�쓌,2.8,��
2020/04/08,10:00,0.694,0.991,0.672,1.208,0.867,0.397,0.692,0.656,���쓌,3.2,��
2020/04/08,10:10,0.695,0.992,0.670,1.208,0.867,0.397,0.691,0.655,���쓌,3.3,��
2020/04/08,10:20,0.694,0.990,0.672,1.209,0.866,0.399,0.691,0.657,���쓌,2.5,��
2020/04/08,10:30,0.693,0.993,0.671,1.207,0.867,0.398,0.694,0.657,��,2.3,��
2020/04/08,10:40,0.694,0.993,0.666,1.209,0.865,0.397,0.693,0.657,���쓌,3.6,��
2020/04/08,10:50,0.695,0.991,0.663,1.208,0.865,0.398,0.692,0.656,���쓌,3.8,��
2020/04/08,11:00,0.693,0.995,0.667,1.207,0.866,0.398,0.693,0.657,���쓌,3.8,��
2020/04/08,11:10,0.694,0.997,0.670,1.209,0.865,0.397,0.693,0.656,���쓌,4.4,��
2020/04/08,11:20,0.695,0.994,0.668,1.210,0.868,0.398,0.693,0.658,���쓌,5.3,��
2020/04/08,11:30,0.694,0.995,0.669,1.210,0.867,0.397,0.693,0.656,���쓌,4.9,��
2020/04/08,11:40,0.694,0.997,0.668,1.209,0.867,0.396,0.693,0.658,�쓌,4.7,��
2020/04/08,11:50,0.694,0.995,0.669,1.210,0.869,0.398,0.692,0.655,���쓌,3.7,��
2020/04/08,12:00,0.695,1.001,0.671,1.211,0.869,0.397,0.692,0.656,�쓌,2.3,��
2020/04/08,12:10,0.694,0.997,0.671,1.209,0.867,0.397,0.693,0.657,���쓌,4.3,��
2020/04/08,12:20,0.695,1.000,0.669,1.210,0.867,0.397,0.692,0.656,�쓌,4.8,��
2020/04/08,12:30,0.695,0.998,0.669,1.211,0.867,0.399,0.692,0.656,�쓌,6.6,��
2020/04/08,12:40,0.695,0.998,0.671,1.209,0.868,0.399,0.693,0.655,��쓌,5.9,��
2020/04/08,12:50,0.695,0.998,0.670,1.209,0.867,0.398,0.693,0.655,�쓌,5.0,��
2020/04/08,13:00,0.693,0.996,0.670,1.210,0.868,0.399,0.693,0.656,��쓌,6.6,��
2020/04/08,13:10,0.696,0.998,0.670,1.209,0.866,0.399,0.693,0.658,��쓌,7.1,��
2020/04/08,13:20,0.694,0.998,0.670,1.209,0.869,0.397,0.693,0.657,��쓌,8.7,��
2020/04/08,13:30,0.695,0.997,0.668,1.211,0.869,0.397,0.695,0.657,��쓌,9.1,��
2020/04/08,13:40,0.694,0.997,0.669,1.209,0.869,0.398,0.694,0.656,��쓌,9.5,��
2020/04/08,13:50,0.693,0.996,0.668,1.209,0.869,0.398,0.693,0.656,��쓌,8.8,��
2020/04/08,14:00,0.693,0.994,0.669,1.210,0.869,0.397,0.693,0.656,��쓌,9.6,��
2020/04/08,14:10,0.695,0.995,0.669,1.210,0.869,0.399,0.693,0.658,��쓌,9.9,��
2020/04/08,14:20,0.694,0.997,0.669,1.211,0.870,0.399,0.694,0.656,��쓌,10.3,��
2020/04/08,14:30,0.694,0.994,0.670,1.210,0.869,0.398,0.694,0.656,��쓌,10.0,��
2020/04/08,14:40,0.695,0.998,0.670,1.210,0.869,0.399,0.693,0.657,��쓌,9.5,��
2020/04/08,14:50,0.693,0.997,0.668,1.212,0.870,0.399,0.694,0.658,��쓌,10.9,��
2020/04/08,15:00,0.696,0.996,0.671,1.212,0.869,0.397,0.693,0.657,��쓌,12.2,��
2020/04/08,15:10,0.694,0.999,0.671,1.212,0.869,0.398,0.694,0.656,��,8.8,��
2020/04/08,15:20,0.694,1.002,0.668,1.209,0.870,0.401,0.695,0.658,��쓌,9.1,��
2020/04/08,15:30,0.693,1.002,0.672,1.211,0.869,0.401,0.693,0.656,��쓌,9.5,��
2020/04/08,15:40,0.694,1.005,0.671,1.211,0.869,0.400,0.692,0.657,��쓌,7.8,��
2020/04/08,15:50,0.695,1.006,0.670,1.209,0.871,0.402,0.695,0.658,��쓌,7.3,��
2020/04/08,16:00,0.694,1.003,0.672,1.209,0.870,0.400,0.695,0.657,��쓌,6.9,��
2020/04/08,16:10,0.696,1.004,0.670,1.211,0.871,0.401,0.695,0.657,��,7.3,��
2020/04/08,16:20,0.695,1.005,0.670,1.209,0.871,0.403,0.694,0.657,��,7.7,��
2020/04/08,16:30,0.696,1.006,0.672,1.209,0.869,0.403,0.695,0.656,��,7.8,��
2020/04/08,16:40,0.696,1.004,0.671,1.209,0.870,0.401,0.694,0.658,��,7.8,��
2020/04/08,16:50,0.696,1.004,0.670,1.209,0.871,0.404,0.694,0.657,��쓌,6.8,��
2020/04/08,17:00,0.695,1.005,0.670,1.211,0.869,0.403,0.695,0.657,��쓌,7.2,��
2020/04/08,17:10,0.695,1.010,0.671,1.207,0.871,0.400,0.694,0.657,��쓌,7.5,��
2020/04/08,17:20,0.699,1.006,0.671,1.209,0.870,0.402,0.695,0.659,��쓌,7.0,��
2020/04/08,17:30,0.697,1.008,0.671,1.211,0.871,0.404,0.694,0.659,��쓌,5.7,��
2020/04/08,17:40,0.697,1.008,0.673,1.210,0.869,0.401,0.694,0.658,��쓌,6.1,��
2020/04/08,17:50,0.697,1.005,0.671,1.210,0.871,0.402,0.692,0.660,��쓌,5.8,��
2020/04/08,18:00,0.699,1.005,0.671,1.212,0.867,0.402,0.694,0.659,��쓌,5.4,��
2020/04/08,18:10,0.697,1.007,0.673,1.210,0.870,0.402,0.693,0.660,��쓌,5.7,��
2020/04/08,18:20,0.697,1.010,0.673,1.210,0.870,0.401,0.693,0.660,��,5.0,��
2020/04/08,18:30,0.697,1.005,0.674,1.214,0.870,0.402,0.694,0.660,��,4.7,��
2020/04/08,18:40,0.699,1.006,0.674,1.213,0.872,0.402,0.696,0.659,��,5.3,��
2020/04/08,18:50,0.699,1.007,0.671,1.212,0.874,0.401,0.693,0.659,��,4.3,��
2020/04/08,19:00,0.698,1.006,0.672,1.210,0.873,0.402,0.695,0.659,��,4.6,��
2020/04/08,19:10,0.696,1.007,0.673,1.211,0.872,0.400,0.696,0.660,��쓌,5.2,��
2020/04/08,19:20,0.698,1.006,0.671,1.212,0.870,0.402,0.694,0.660,��쓌,5.1,��
2020/04/08,19:30,0.698,1.006,0.671,1.210,0.873,0.400,0.695,0.660,��,5.0,��
2020/04/08,19:40,0.695,1.004,0.672,1.211,0.871,0.401,0.696,0.659,��,5.9,��
2020/04/08,19:50,0.696,1.006,0.673,1.210,0.872,0.402,0.696,0.661,��,5.0,��
2020/04/08,20:00,0.696,1.007,0.672,1.212,0.874,0.402,0.696,0.660,��,4.5,��
2020/04/08,20:10,0.696,1.007,0.674,1.211,0.873,0.402,0.694,0.658,��쐼,2.2,��
2020/04/08,20:20,0.696,1.007,0.672,1.211,0.871,0.401,0.696,0.659,�쐼,2.2,��
2020/04/08,20:30,0.697,1.008,0.672,1.211,0.872,0.401,0.697,0.659,�쐼,1.5,��
2020/04/08,20:40,0.696,1.005,0.671,1.209,0.872,0.401,0.695,0.659,���쐼,2.3,��
2020/04/08,20:50,0.697,1.005,0.672,1.214,0.872,0.399,0.695,0.660,���k��,2.9,��
2020/04/08,21:00,0.698,1.006,0.672,1.209,0.871,0.401,0.695,0.659,�k�k��,1.7,�L
2020/04/08,21:10,0.699,1.006,0.673,1.212,0.873,0.401,0.696,0.659,-,CALM,�L
2020/04/08,21:20,0.698,1.007,0.674,1.213,0.872,0.401,0.695,0.659,��,1.2,��
2020/04/08,21:30,0.696,1.007,0.674,1.211,0.872,0.400,0.694,0.658,�쐼,1.7,��
2020/04/08,21:40,0.696,1.003,0.673,1.213,0.871,0.402,0.697,0.660,�쐼,1.9,��
2020/04/08,21:50,0.699,1.006,0.673,1.212,0.871,0.402,0.695,0.658,��,0.9,��
2020/04/08,22:00,0.697,1.004,0.674,1.211,0.872,0.402,0.693,0.659,���쐼,0.8,��
2020/04/08,22:10,0.698,1.006,0.673,1.212,0.871,0.400,0.694,0.659,���k��,1.5,��
2020/04/08,22:20,0.697,1.003,0.674,1.210,0.872,0.402,0.695,0.660,�k�k��,2.3,��
2020/04/08,22:30,0.698,1.006,0.671,1.211,0.868,0.400,0.695,0.659,�k,1.5,��
2020/04/08,22:40,0.696,1.004,0.672,1.212,0.871,0.400,0.695,0.658,�k�k��,1.5,��
2020/04/08,22:50,0.697,1.006,0.672,1.211,0.872,0.401,0.695,0.658,�k��,2.6,��
2020/04/08,23:00,0.696,1.005,0.670,1.211,0.870,0.400,0.695,0.659,�k�k��,3.1,��
2020/04/08,23:10,0.696,1.004,0.673,1.211,0.871,0.400,0.696,0.658,�k,4.7,��
2020/04/08,23:20,0.697,1.004,0.672,1.212,0.870,0.401,0.696,0.659,�k,6.0,��
2020/04/08,23:30,0.695,1.004,0.673,1.211,0.872,0.399,0.694,0.658,�k�k��,6.1,��
2020/04/08,23:40,0.698,1.003,0.672,1.210,0.869,0.399,0.694,0.658,�k�k��,4.9,��
2020/04/08,23:50,0.699,1.004,0.673,1.211,0.871,0.400,0.696,0.660,�k�k��,5.0,��
